[[{"header":{"parameterUnit":"m.s-1","parameterCategory":2,"la1":30.2991,"la2":30.254,"lo1":-89.0895,"lo2":-89.0444,"dy":0.0017,"dx":0.0017,"nx":28,"ny":28,"refTime":"2025-03-16T03:00:00:Z","depth":"0","parameterNumber":2,"parameterNumberName":"U-component_of_CURRENTS"},"data":[0,0,0,0,0,0,0,0,0,0,0,0,0,0,0,0,0,0,0,0,0,0,0,0,0,0,0,0,0,0,0,0,0,0,0,0,0,0,0,0,0,0,0,0,0,0,0,0,0,0,0,0,0,0,0,0,0,0,0.2386,0.2386,0,0.237,0.237,0.2369,0.2334,0.2333,0.2333,0.2333,0.2292,0.2291,0.229,0,0,0,0,0,0,0,0,0,0,0,0,0,0.2409,0.2408,0.2386,0.2386,0.2387,0.237,0.237,0.2369,0.2334,0.2333,0.2333,0.2333,0.2292,0.2291,0.229,0,0,0,0,0,0,0,0,0,0,0,0,0,0.2392,0.2408,0.2386,0.2371,0.237,0.237,0.237,0.2369,0.2334,0.2333,0.2333,0.2333,0.2292,0.2291,0.229,0.229,0,0,0.2286,0.2285,0,0,0,0,0,0,0,0,0.2393,0.239,0.2373,0.2372,0.2371,0.2358,0.2363,0.2343,0.2334,0.2342,0.2333,0.2332,0.2315,0.2312,0.2303,0.2288,0.2286,0.2286,0.2285,0.2284,0.2284,0,0,0,0,0,0,0,0.2394,0.2391,0.2375,0.2373,0.2372,0.2373,0.2369,0.2359,0.2327,0.2341,0.234,0.2346,0.2314,0.2304,0.2302,0.2285,0.2286,0.2285,0.2284,0.2283,0.233,0.2332,0,0,0,0,0,0,0.2405,0.2392,0.2375,0.2375,0.2387,0.2373,0.2369,0.2358,0.2327,0.2324,0.2347,0.2345,0.2307,0.2303,0.23,0.2356,0.2284,0.2283,0.2282,0.2328,0.2331,0.2333,0,0,0,0,0,0,0.2405,0.2403,0.2376,0.2388,0.2385,0.2374,0.2362,0.2358,0.2359,0.2333,0.2327,0.2353,0.2306,0.2302,0.2312,0.2352,0.2283,0.2281,0.2326,0.2329,0.2332,0.2431,0,0,0,0,0,0,0.2406,0.2403,0.2402,0.2388,0.2385,0.2404,0.2363,0.2358,0.2366,0.2363,0.2337,0.2332,0.2306,0.2315,0.2311,0.2349,0.228,0.2323,0.2327,0.2331,0.2426,0.2438,0.2448,0,0,0,0,0,0.2406,0.2421,0.2402,0.2401,0.2383,0.2406,0.2405,0.2392,0.2367,0.2386,0.2363,0.2333,0.2336,0.2315,0.2311,0.2349,0.2321,0.2326,0.233,0.2421,0.2435,0.2447,0,0,0,0,0,0,0.2444,0.2418,0.2397,0.2405,0.2414,0.2403,0.2418,0.2403,0.2397,0.239,0.2352,0.2347,0.2374,0.2349,0.2327,0.2376,0.2327,0.233,0.2397,0.241,0.2421,0.2431,0.2279,0,0,0,0,0,0.2448,0.2446,0.2432,0.2446,0.2446,0.243,0.2436,0.2428,0.2422,0.2418,0.2396,0.2381,0.2388,0.2389,0.2384,0.2406,0.2398,0.243,0.2442,0.2451,0.2457,0.2488,0.2502,0.2348,0.2348,0.2347,0,0,0.2474,0.2458,0.2459,0.2454,0.245,0.2462,0.2432,0.2453,0.2469,0.2415,0.2427,0.2417,0.2403,0.2432,0.2442,0.2416,0.2494,0.2457,0.2465,0.2466,0.2494,0.2509,0.2522,0.2351,0.235,0.235,0,0,0.252,0.2501,0.2507,0.2514,0.2516,0.2506,0.2516,0.2506,0.2509,0.2527,0.2496,0.2516,0.2507,0.2514,0.2515,0.2586,0.2552,0.2583,0.2645,0.2675,0.2688,0.2699,0.272,0.2733,0.2588,0.2588,0.2588,0,0.2551,0.2544,0.2523,0.2535,0.2543,0.2527,0.2545,0.2554,0.2553,0.2564,0.2548,0.2566,0.2553,0.26,0.2625,0.2613,0.2614,0.2595,0.269,0.2701,0.271,0.2729,0.2741,0.2594,0.2593,0.2592,0.2592,0,0.2585,0.2593,0.2608,0.2598,0.2609,0.2635,0.2634,0.265,0.2643,0.2649,0.2696,0.269,0.2699,0.2711,0.2688,0.2755,0.273,0.2701,0.2655,0.2732,0.2747,0.2758,0.2601,0.2599,0.2598,0.2596,0,0,0.2613,0.2627,0.263,0.2628,0.2642,0.2647,0.2689,0.2715,0.2738,0.2762,0.2804,0.2836,0.2829,0.283,0.2816,0.2848,0.2923,0.2806,0.2805,0.2826,0.2986,0.2929,0.2935,0.2907,0.2909,0.2911,0.2973,0,0.2643,0.2666,0.2669,0.2698,0.2701,0.2711,0.2743,0.2769,0.2797,0.2837,0.287,0.2902,0.2877,0.2886,0.2921,0.292,0.2954,0.2909,0.2909,0.2909,0.2849,0.2947,0.2905,0.2953,0.2983,0.2985,0.2986,0,0.2648,0.2663,0.2693,0.2714,0.2717,0.2736,0.2768,0.2803,0.2871,0.29,0.2957,0.297,0.3035,0.2994,0.3056,0.3025,0.3015,0.3016,0.3018,0.2935,0.2873,0.2879,0.2971,0.3004,0.3002,0.3001,0.3,0,0.2623,0.2668,0.2686,0.2698,0.273,0.2746,0.2762,0.2817,0.2851,0.2943,0.2978,0.3054,0.3084,0.3112,0.3116,0.3088,0.3175,0.3131,0.3076,0.3072,0.3021,0.3007,0.3141,0.3175,0.3175,0.3175,0.3175,0,0.2623,0.2634,0.2674,0.2682,0.2694,0.2726,0.2759,0.2797,0.2875,0.2921,0.2998,0.3051,0.3113,0.3161,0.3158,0.3162,0.3209,0.3111,0.3095,0.3054,0.3044,0.3052,0.3051,0.3177,0.3177,0.3177,0.3176,0,0.2569,0.2613,0.2626,0.2669,0.2677,0.2678,0.2728,0.2757,0.2844,0.2912,0.2944,0.3062,0.3131,0.3181,0.3234,0.3201,0.316,0.3197,0.3142,0.3118,0.3068,0.3071,0.2944,0.2863,0.3154,0.3153,0.3153,0,0.2532,0.2541,0.2585,0.2584,0.2599,0.2619,0.2628,0.2722,0.2768,0.2907,0.2936,0.3045,0.3128,0.3209,0.319,0.3207,0.3133,0.3136,0.3071,0.3089,0.3082,0.2904,0.2833,0.3054,0.3053,0.3052,0.3051,0,0.2449,0.2477,0.2485,0.2492,0.2503,0.2523,0.256,0.26,0.2719,0.2796,0.2917,0.3011,0.3116,0.3142,0.3155,0.3143,0.3045,0.3106,0.3156,0.3049,0.2834,0.2741,0.2987,0.304,0.3041,0.3042,0.3042,0.3043,0.236,0.2353,0.2371,0.2372,0.239,0.2411,0.2407,0.2487,0.2561,0.2665,0.2816,0.2909,0.3074,0.3105,0.3064,0.3038,0.2943,0.3007,0.3022,0.2848,0.2732,0.2944,0.2948,0.2948,0.2949,0.2949,0.295,0,0.2218,0.2234,0.2239,0.2248,0.2241,0.2289,0.2335,0.2338,0.2396,0.2541,0.2649,0.2806,0.2911,0.2995,0.3079,0.3022,0.2822,0.2983,0.2793,0.2735,0.2995,0.2959,0.2928,0.2928,0.2928,0.2928,0.2928,0.2928,0.2131,0.2102,0.2134,0.2095,0.2106,0.2069,0.2083,0.2118,0.2197,0.2297,0.2383,0.2508,0.2874,0.314,0.3191,0.31,0.2927,0.2779,0.2746,0.3063,0.3068,0.3072,0.3043,0.3029,0.3029,0.2374,0.2371,0.2368]},{"header":{"parameterUnit":"m.s-1","parameterCategory":2,"la1":30.2991,"la2":30.254,"lo1":-89.0895,"lo2":-89.0444,"dy":0.0017,"dx":0.0017,"nx":28,"ny":28,"refTime":"2025-03-16T03:00:00:Z","depth":"0","parameterNumber":3,"parameterNumberName":"V-component_of_CURRENTS"},"data":[0,0,0,0,0,0,0,0,0,0,0,0,0,0,0,0,0,0,0,0,0,0,0,0,0,0,0,0,0,0,0,0,0,0,0,0,0,0,0,0,0,0,0,0,0,0,0,0,0,0,0,0,0,0,0,0,0,0,-0.011,-0.011,0,-0.0101,-0.01,-0.01,-0.0113,-0.0113,-0.0114,-0.0114,-0.0118,-0.0118,-0.0118,0,0,0,0,0,0,0,0,0,0,0,0,0,-0.018,-0.0179,-0.011,-0.011,-0.0109,-0.0101,-0.01,-0.01,-0.0113,-0.0113,-0.0114,-0.0115,-0.0118,-0.0118,-0.0118,0,0,0,0,0,0,0,0,0,0,0,0,0,-0.0158,-0.0178,-0.011,-0.0115,-0.0115,-0.0101,-0.01,-0.01,-0.0113,-0.0113,-0.0114,-0.0115,-0.0119,-0.0118,-0.0118,-0.01,0,0,-0.0116,-0.0116,0,0,0,0,0,0,0,0,-0.0159,-0.0155,-0.0114,-0.0115,-0.0115,-0.0109,-0.0127,-0.0101,-0.0113,-0.0113,-0.0114,-0.0115,-0.0116,-0.0116,-0.0112,-0.01,-0.0101,-0.0116,-0.0116,-0.0115,-0.0115,0,0,0,0,0,0,0,-0.0161,-0.0156,-0.0106,-0.0114,-0.0114,-0.0132,-0.0129,-0.0122,-0.0111,-0.0113,-0.0114,-0.0114,-0.0116,-0.0112,-0.0112,-0.0101,-0.0116,-0.0116,-0.0115,-0.0115,-0.0092,-0.0092,0,0,0,0,0,0,-0.0159,-0.0157,-0.0106,-0.0106,-0.014,-0.013,-0.0127,-0.011,-0.0111,-0.0111,-0.0113,-0.0114,-0.0113,-0.0113,-0.0112,-0.0099,-0.0115,-0.0115,-0.0115,-0.0093,-0.0092,-0.0092,0,0,0,0,0,0,-0.016,-0.0154,-0.0106,-0.0133,-0.0128,-0.0128,-0.0109,-0.0109,-0.011,-0.011,-0.0111,-0.0114,-0.0113,-0.0113,-0.0106,-0.0099,-0.0115,-0.0114,-0.0093,-0.0093,-0.0092,-0.0068,0,0,0,0,0,0,-0.0162,-0.0154,-0.0139,-0.0132,-0.0126,-0.0092,-0.0108,-0.0109,-0.0108,-0.011,-0.0111,-0.0112,-0.0114,-0.0107,-0.0106,-0.0099,-0.0114,-0.0093,-0.0093,-0.0092,-0.0069,-0.0067,-0.0065,0,0,0,0,0,-0.0164,-0.0136,-0.0138,-0.0132,-0.0106,-0.0091,-0.0089,-0.0093,-0.0108,-0.0099,-0.0105,-0.0112,-0.0103,-0.0106,-0.0105,-0.0098,-0.0094,-0.0093,-0.0092,-0.007,-0.0068,-0.0065,0,0,0,0,0,0,-0.0165,-0.0134,-0.0137,-0.0103,-0.0097,-0.0093,-0.0082,-0.0093,-0.0091,-0.0093,-0.0104,-0.0104,-0.0096,-0.01,-0.0103,-0.009,-0.0101,-0.01,-0.0085,-0.0082,-0.008,-0.0072,-0.0114,0,0,0,0,0,-0.0156,-0.0125,-0.0113,-0.009,-0.0081,-0.0085,-0.0081,-0.0084,-0.0082,-0.0083,-0.0087,-0.0091,-0.009,-0.0089,-0.0086,-0.0075,-0.0092,-0.0072,-0.007,-0.0068,-0.0061,-0.0087,-0.0087,-0.009,-0.009,-0.009,0,0,-0.0154,-0.0133,-0.0117,-0.0088,-0.0082,-0.0058,-0.0083,-0.007,-0.0058,-0.0082,-0.0067,-0.008,-0.0086,-0.0075,-0.0073,-0.0078,-0.0076,-0.0067,-0.0065,-0.0059,-0.0086,-0.0086,-0.0086,-0.0089,-0.0089,-0.0089,0,0,-0.0131,-0.011,-0.0077,-0.0064,-0.0049,-0.0042,-0.0039,-0.0033,-0.0036,-0.0023,-0.0044,-0.0056,-0.0045,-0.0056,-0.0058,-0.0042,-0.0064,-0.0042,-0.0023,-0.0049,-0.0049,-0.0049,-0.0073,-0.0076,-0.0042,-0.0042,-0.0041,0,-0.0132,-0.0083,-0.0071,-0.004,-0.0022,-0.0032,-0.0001,0.0,0.0002,0.0001,-0.0012,-0.0023,-0.0035,-0.0034,-0.0033,-0.0037,-0.0054,-0.0033,-0.0046,-0.0047,-0.0048,-0.0073,-0.0076,-0.004,-0.004,-0.0041,-0.0041,0,-0.0086,-0.005,-0.003,0.0015,0.0034,0.0059,0.0067,0.0075,0.0067,0.0059,0.0053,0.0028,0.002,0.0007,-0.0006,-0.0017,-0.0029,-0.0041,-0.0053,-0.0046,-0.0073,-0.0076,-0.0039,-0.0039,-0.0039,-0.004,0,0,-0.0088,-0.0009,-0.0005,0.003,0.0068,0.009,0.0115,0.0135,0.0147,0.0127,0.0132,0.0106,0.0075,0.0069,0.0037,0.0007,-0.0022,-0.0017,-0.0019,-0.0042,-0.0079,-0.0085,-0.009,-0.0038,-0.0038,-0.0039,-0.0097,0,-0.0059,0.0023,0.0049,0.0114,0.0159,0.0167,0.0193,0.0203,0.0202,0.0204,0.0154,0.0151,0.0104,0.0095,0.0057,0.0001,-0.003,-0.0005,-0.0082,-0.0084,-0.0091,-0.0094,-0.0078,-0.0128,-0.0101,-0.0101,-0.0102,0,-0.0028,0.003,0.011,0.0182,0.02,0.0234,0.0279,0.0299,0.0292,0.0286,0.026,0.0223,0.0174,0.0135,0.0038,0.0056,-0.0005,-0.0055,-0.0059,-0.0074,-0.0097,-0.013,-0.0136,-0.027,-0.0108,-0.0107,-0.0107,0,-0.0018,0.0067,0.014,0.0166,0.0243,0.0272,0.0305,0.0322,0.0348,0.0335,0.0345,0.0277,0.0254,0.0161,0.0054,0.0046,-0.0052,-0.0076,-0.0139,-0.0141,-0.0145,-0.0146,-0.0288,-0.0139,-0.0138,-0.0138,-0.0138,0,0.0014,0.0066,0.0154,0.0196,0.027,0.0304,0.0368,0.0384,0.0411,0.0449,0.0385,0.04,0.026,0.0187,0.0077,-0.004,-0.0035,-0.0134,-0.0155,-0.0137,-0.0136,-0.0267,-0.036,-0.014,-0.014,-0.014,-0.0139,0,0.0021,0.0077,0.0161,0.0252,0.0284,0.0334,0.0426,0.0473,0.0483,0.0531,0.0531,0.0489,0.0399,0.0254,0.011,0.0004,-0.0201,-0.0157,-0.0125,-0.0142,-0.0328,-0.0419,-0.0559,-0.0663,-0.0241,-0.0242,-0.0242,0,0.0041,0.0089,0.0201,0.0259,0.0307,0.039,0.0456,0.0505,0.0565,0.0596,0.063,0.0561,0.0547,0.0327,0.0118,-0.0078,-0.0215,-0.0194,-0.0209,-0.0338,-0.0455,-0.0492,-0.0573,-0.0211,-0.0211,-0.0211,-0.0211,0,0.0075,0.0109,0.0183,0.0302,0.0387,0.0485,0.0585,0.0651,0.0708,0.0762,0.0828,0.0818,0.0602,0.0422,0.0138,-0.0005,-0.0305,-0.0202,-0.0346,-0.0454,-0.0493,-0.0601,-0.0178,-0.0212,-0.0212,-0.0212,-0.0212,-0.0212,0.0095,0.0145,0.0244,0.0351,0.0454,0.0586,0.0693,0.0804,0.0925,0.1042,0.0998,0.1035,0.0728,0.0353,0.0106,-0.0302,-0.0325,-0.0408,-0.0511,-0.0537,-0.0634,-0.0211,-0.0261,-0.0261,-0.0261,-0.0261,-0.0261,0,0.013,0.0194,0.0296,0.0436,0.0559,0.061,0.0789,0.0916,0.1094,0.1187,0.1259,0.1148,0.0767,0.0355,-0.0206,-0.0529,-0.0663,-0.0714,-0.0777,-0.0851,-0.0477,-0.0472,-0.0556,-0.0556,-0.0556,-0.0556,-0.0555,-0.0555,0.0158,0.0249,0.0303,0.05,0.0612,0.0814,0.0935,0.1121,0.125,0.1426,0.1469,0.1444,0.1195,0.016,-0.056,-0.0786,-0.1074,-0.111,-0.1272,-0.1022,-0.1001,-0.0981,-0.0997,-0.1189,-0.119,-0.1583,-0.1587,-0.1591]}],[{"header":{"parameterUnit":"m.s-1","parameterCategory":2,"la1":30.2991,"la2":30.254,"lo1":-89.0895,"lo2":-89.0444,"dy":0.0017,"dx":0.0017,"nx":28,"ny":28,"refTime":"2025-03-16T03:00:00:Z","depth":"2","parameterNumber":2,"parameterNumberName":"U-component_of_CURRENTS"},"data":[0,0,0,0,0,0,0,0,0,0,0,0,0,0,0,0,0,0,0,0,0,0,0,0,0,0,0,0,0,0,0,0,0,0,0,0,0,0,0,0,0,0,0,0,0,0,0,0,0,0,0,0,0,0,0,0,0,0,0.2318,0.2318,0,0.23,0.2299,0.2298,0.2265,0.2265,0.2265,0.2264,0.2226,0.2225,0.2224,0,0,0,0,0,0,0,0,0,0,0,0,0,0.2335,0.2335,0.2318,0.2318,0.2318,0.23,0.2299,0.2298,0.2265,0.2265,0.2265,0.2264,0.2226,0.2225,0.2224,0,0,0,0,0,0,0,0,0,0,0,0,0,0.2319,0.2334,0.2318,0.2303,0.2301,0.23,0.2299,0.2298,0.2265,0.2265,0.2265,0.2264,0.2226,0.2225,0.2224,0.2224,0,0,0.222,0.222,0,0,0,0,0,0,0,0,0.232,0.2318,0.2305,0.2304,0.2302,0.2288,0.2291,0.2274,0.2265,0.2274,0.2264,0.2264,0.2248,0.2245,0.2236,0.2222,0.222,0.222,0.222,0.2219,0.2219,0,0,0,0,0,0,0,0.2321,0.2319,0.2306,0.2305,0.2304,0.2301,0.2297,0.2287,0.226,0.2274,0.2272,0.2277,0.2246,0.2238,0.2235,0.222,0.222,0.2219,0.2218,0.2218,0.2265,0.2266,0,0,0,0,0,0,0.2332,0.232,0.2307,0.2306,0.2315,0.2301,0.2297,0.2289,0.226,0.2257,0.2278,0.2276,0.224,0.2237,0.2234,0.229,0.2219,0.2218,0.2217,0.2263,0.2265,0.2267,0,0,0,0,0,0,0.2332,0.233,0.2308,0.2317,0.2314,0.2302,0.2293,0.2289,0.2293,0.2264,0.2259,0.2287,0.2239,0.2235,0.2247,0.2286,0.2217,0.2216,0.226,0.2263,0.2266,0.2366,0,0,0,0,0,0,0.2332,0.233,0.2329,0.2317,0.2314,0.2335,0.2294,0.2289,0.2298,0.2296,0.227,0.2266,0.2239,0.2249,0.2245,0.2283,0.2215,0.2258,0.2262,0.2265,0.236,0.2372,0.2382,0,0,0,0,0,0.2333,0.2345,0.2328,0.2327,0.2312,0.2337,0.2336,0.2322,0.2299,0.2319,0.2297,0.2267,0.227,0.2249,0.2245,0.2283,0.2256,0.2261,0.2265,0.2355,0.2369,0.2381,0,0,0,0,0,0,0.2369,0.2343,0.2324,0.2331,0.2344,0.2334,0.2348,0.2335,0.2331,0.2322,0.2286,0.2281,0.2308,0.2284,0.2262,0.2309,0.2261,0.2264,0.2331,0.2344,0.2355,0.2366,0.2214,0,0,0,0,0,0.2371,0.2367,0.2357,0.2371,0.2372,0.2359,0.2365,0.2358,0.2353,0.235,0.233,0.2315,0.2321,0.2323,0.2317,0.2339,0.2331,0.2364,0.2375,0.2384,0.2392,0.2418,0.2432,0.2282,0.2282,0.2281,0,0,0.2397,0.238,0.2382,0.2378,0.2376,0.239,0.2362,0.2383,0.24,0.2347,0.2361,0.2351,0.2336,0.2364,0.2374,0.2349,0.2426,0.239,0.2398,0.2401,0.2424,0.2438,0.2451,0.2285,0.2284,0.2284,0,0,0.2442,0.2424,0.2428,0.2438,0.244,0.2431,0.2443,0.2436,0.244,0.2459,0.2428,0.2448,0.244,0.2447,0.2447,0.2517,0.2483,0.2513,0.2577,0.2603,0.2615,0.2626,0.2649,0.2661,0.2519,0.2519,0.2519,0,0.2472,0.2465,0.2445,0.2456,0.2465,0.2452,0.2471,0.2482,0.2484,0.2496,0.248,0.2499,0.2486,0.2533,0.2557,0.2544,0.2545,0.2528,0.2618,0.2628,0.2637,0.2657,0.2669,0.2525,0.2524,0.2523,0.2523,0,0.2503,0.2513,0.2529,0.2519,0.2531,0.2559,0.2559,0.2577,0.2573,0.2579,0.2626,0.2621,0.263,0.2642,0.262,0.2685,0.2661,0.2628,0.2584,0.2658,0.2675,0.2686,0.2532,0.253,0.2529,0.2527,0,0,0.2526,0.2544,0.2549,0.2549,0.2564,0.257,0.2613,0.2641,0.2666,0.2691,0.2734,0.2767,0.276,0.2762,0.2748,0.2778,0.2851,0.2735,0.2734,0.2757,0.2908,0.2847,0.2852,0.2829,0.2831,0.2833,0.2898,0,0.2555,0.2579,0.2584,0.2617,0.262,0.2634,0.2667,0.2694,0.2724,0.2765,0.2799,0.2831,0.2808,0.2818,0.2851,0.2847,0.2881,0.2836,0.2832,0.2832,0.2769,0.2863,0.2592,0.2623,0.2908,0.291,0.2911,0,0.2556,0.2572,0.2605,0.2631,0.2635,0.2656,0.269,0.2727,0.2797,0.2828,0.2886,0.2899,0.2964,0.2923,0.2982,0.2952,0.2941,0.294,0.2942,0.2855,0.2791,0.2592,0.2631,0.2928,0.2927,0.2925,0.2924,0,0.2526,0.2574,0.2595,0.261,0.2647,0.2666,0.2684,0.2741,0.2777,0.2871,0.2907,0.2983,0.3012,0.3037,0.304,0.3013,0.3094,0.3049,0.2992,0.2987,0.2741,0.2711,0.3092,0.3092,0.3091,0.3091,0.3091,0,0.2525,0.254,0.2583,0.2596,0.2609,0.2642,0.268,0.2721,0.2802,0.2848,0.2927,0.2979,0.3039,0.3084,0.308,0.308,0.3127,0.3028,0.3009,0.277,0.2743,0.2982,0.2968,0.3094,0.3093,0.3093,0.3092,0,0.2473,0.2521,0.2537,0.2585,0.2592,0.2595,0.2651,0.2683,0.2772,0.2841,0.2873,0.2989,0.3055,0.3103,0.3151,0.3117,0.313,0.3107,0.2828,0.2776,0.2997,0.2988,0.3066,0.3065,0.3064,0.3063,0.3062,0,0.2441,0.2448,0.2496,0.2497,0.2518,0.2539,0.2551,0.2648,0.2696,0.2835,0.2862,0.2968,0.3038,0.3111,0.305,0.3052,0.3114,0.2804,0.2709,0.3025,0.3,0.2992,0.2985,0.2424,0.2418,0.2413,0.2409,0,0.2362,0.2391,0.2404,0.2408,0.2424,0.2447,0.2486,0.2525,0.2647,0.2721,0.2837,0.2919,0.2974,0.286,0.2847,0.2807,0.2788,0.2706,0.3107,0.248,0.2427,0.24,0.2412,0.2366,0.237,0.2373,0.2376,0.2377,0.2278,0.2274,0.2292,0.2294,0.2313,0.2335,0.2331,0.24,0.247,0.2524,0.2684,0.2686,0.2687,0.2536,0.2454,0.2368,0.2567,0.2434,0.2446,0.2464,0.2385,0.2334,0.2241,0.2244,0.2247,0.225,0.2252,0,0.2131,0.216,0.2163,0.2174,0.2151,0.2214,0.2259,0.2227,0.2263,0.2331,0.2391,0.2153,0.2085,0.2097,0.1891,0.1896,0.1846,0.1824,0.172,0.1766,0.1806,0.169,0.1363,0.136,0.1358,0.1355,0,0,0.2046,0.2012,0.2044,0.1994,0.2014,0.1977,0.1991,0.1955,0.1967,0.1896,0.1856,0.1961,0.2045,0.1657,0.1605,0.1459,0.1606,0.1401,0.2116,0.204,0.2077,0.2161,0.2035,0,0,0,0,0]},{"header":{"parameterUnit":"m.s-1","parameterCategory":2,"la1":30.2991,"la2":30.254,"lo1":-89.0895,"lo2":-89.0444,"dy":0.0017,"dx":0.0017,"nx":28,"ny":28,"refTime":"2025-03-16T03:00:00:Z","depth":"2","parameterNumber":3,"parameterNumberName":"V-component_of_CURRENTS"},"data":[0,0,0,0,0,0,0,0,0,0,0,0,0,0,0,0,0,0,0,0,0,0,0,0,0,0,0,0,0,0,0,0,0,0,0,0,0,0,0,0,0,0,0,0,0,0,0,0,0,0,0,0,0,0,0,0,0,0,-0.0053,-0.0053,0,-0.0042,-0.0042,-0.0042,-0.0055,-0.0056,-0.0056,-0.0057,-0.0061,-0.0061,-0.0061,0,0,0,0,0,0,0,0,0,0,0,0,0,-0.0121,-0.0119,-0.0053,-0.0053,-0.0052,-0.0042,-0.0042,-0.0042,-0.0055,-0.0056,-0.0056,-0.0057,-0.0061,-0.0061,-0.0061,0,0,0,0,0,0,0,0,0,0,0,0,0,-0.0099,-0.0119,-0.0053,-0.0058,-0.0058,-0.0042,-0.0042,-0.0042,-0.0055,-0.0056,-0.0056,-0.0057,-0.0061,-0.0061,-0.0061,-0.0043,0,0,-0.0059,-0.0059,0,0,0,0,0,0,0,0,-0.01,-0.0096,-0.0057,-0.0057,-0.0058,-0.0051,-0.0068,-0.0043,-0.0055,-0.0056,-0.0057,-0.0057,-0.0058,-0.0058,-0.0055,-0.0044,-0.0044,-0.0059,-0.0059,-0.0059,-0.0058,0,0,0,0,0,0,0,-0.0102,-0.0097,-0.0049,-0.0057,-0.0057,-0.0073,-0.007,-0.0063,-0.0054,-0.0056,-0.0057,-0.0056,-0.0059,-0.0055,-0.0055,-0.0044,-0.0059,-0.0059,-0.0058,-0.0058,-0.0037,-0.0037,0,0,0,0,0,0,-0.01,-0.0098,-0.0049,-0.0048,-0.0081,-0.0071,-0.0068,-0.0052,-0.0054,-0.0054,-0.0055,-0.0056,-0.0056,-0.0055,-0.0055,-0.0043,-0.0059,-0.0058,-0.0058,-0.0037,-0.0037,-0.0037,0,0,0,0,0,0,-0.0101,-0.0095,-0.0049,-0.0074,-0.007,-0.0069,-0.0051,-0.0052,-0.0054,-0.0052,-0.0054,-0.0057,-0.0056,-0.0056,-0.005,-0.0043,-0.0058,-0.0057,-0.0038,-0.0037,-0.0037,-0.0014,0,0,0,0,0,0,-0.0103,-0.0095,-0.008,-0.0073,-0.0068,-0.0035,-0.005,-0.0051,-0.0051,-0.0053,-0.0055,-0.0055,-0.0057,-0.005,-0.0049,-0.0043,-0.0057,-0.0038,-0.0037,-0.0037,-0.0015,-0.0013,-0.0011,0,0,0,0,0,-0.0105,-0.0077,-0.0079,-0.0073,-0.0048,-0.0034,-0.0033,-0.0036,-0.0051,-0.0043,-0.0049,-0.0056,-0.0047,-0.0049,-0.0048,-0.0042,-0.0038,-0.0038,-0.0037,-0.0016,-0.0013,-0.0011,0,0,0,0,0,0,-0.0106,-0.0075,-0.0078,-0.0044,-0.004,-0.0037,-0.0025,-0.0037,-0.0035,-0.0037,-0.0048,-0.0048,-0.0041,-0.0044,-0.0047,-0.0035,-0.0045,-0.0044,-0.003,-0.0027,-0.0025,-0.0017,-0.0057,0,0,0,0,0,-0.0097,-0.0066,-0.0054,-0.0032,-0.0024,-0.0029,-0.0024,-0.0027,-0.0027,-0.0027,-0.0032,-0.0036,-0.0035,-0.0034,-0.0031,-0.0021,-0.0037,-0.0018,-0.0016,-0.0014,-0.0007,-0.0031,-0.0031,-0.0035,-0.0035,-0.0035,0,0,-0.0095,-0.0074,-0.0059,-0.003,-0.0025,-0.0002,-0.0027,-0.0015,-0.0003,-0.0027,-0.0012,-0.0026,-0.0031,-0.0021,-0.0018,-0.0024,-0.0022,-0.0013,-0.0011,-0.0005,-0.003,-0.003,-0.003,-0.0034,-0.0034,-0.0034,0,0,-0.0073,-0.0053,-0.002,-0.0008,0.0008,0.0015,0.0017,0.0022,0.0018,0.003,0.001,-0.0002,0.0008,-0.0002,-0.0005,0.0011,-0.001,0.0011,0.0029,0.0005,0.0005,0.0005,-0.0019,-0.0022,0.0011,0.0011,0.0011,0,-0.0074,-0.0026,-0.0013,0.0018,0.0035,0.0024,0.0055,0.0055,0.0056,0.0054,0.0041,0.003,0.0018,0.0019,0.002,0.0016,-0.0001,0.002,0.0007,0.0007,0.0007,-0.0018,-0.0021,0.0012,0.0012,0.0012,0.0012,0,-0.0028,0.0008,0.0027,0.0072,0.009,0.0115,0.0122,0.0128,0.012,0.0112,0.0105,0.008,0.0072,0.0059,0.0046,0.0035,0.0023,0.0012,0.0001,0.0008,-0.0018,-0.0022,0.0014,0.0014,0.0013,0.0013,0,0,-0.0027,0.0049,0.0053,0.0087,0.0124,0.0146,0.017,0.0189,0.0201,0.018,0.0185,0.0158,0.0127,0.0121,0.0089,0.006,0.0031,0.0036,0.0034,0.0012,-0.0022,-0.0028,-0.0032,0.0017,0.0017,0.0016,-0.0041,0,0.0002,0.0084,0.0108,0.0172,0.0218,0.0223,0.0248,0.0257,0.0256,0.0257,0.0208,0.0204,0.0156,0.0146,0.0109,0.0054,0.0024,0.0048,-0.0025,-0.0027,-0.0033,-0.0036,0.0012,-0.0034,-0.0045,-0.0045,-0.0046,0,0.0039,0.0094,0.0173,0.0242,0.026,0.0292,0.0337,0.0355,0.0348,0.0341,0.0314,0.0277,0.0228,0.0188,0.0093,0.011,0.005,0.0,-0.0003,-0.0016,-0.0039,-0.0042,-0.004,-0.0052,-0.0051,-0.0051,-0.005,0,0.0053,0.0135,0.0207,0.0231,0.0304,0.0332,0.0363,0.0379,0.0404,0.039,0.04,0.0333,0.0309,0.0218,0.0111,0.0102,0.0006,-0.0017,-0.0079,-0.0081,-0.0057,-0.0055,-0.0078,-0.0078,-0.0078,-0.0078,-0.0078,0,0.0087,0.0138,0.0223,0.0261,0.0335,0.0366,0.0428,0.0442,0.0468,0.0507,0.0441,0.0456,0.0316,0.0245,0.0135,0.002,0.0024,-0.0074,-0.0094,-0.0048,-0.0045,-0.0072,-0.0071,-0.008,-0.008,-0.0079,-0.0079,0,0.0097,0.015,0.0231,0.0317,0.0349,0.0398,0.0486,0.0532,0.0541,0.0589,0.0587,0.0546,0.0457,0.0311,0.0169,0.0065,-0.0054,-0.0094,-0.0031,-0.0043,-0.0134,-0.0131,-0.0175,-0.0175,-0.0176,-0.0176,-0.0177,0,0.0117,0.0164,0.0272,0.0328,0.0372,0.0453,0.0518,0.0564,0.0624,0.0654,0.0689,0.062,0.0607,0.039,0.0192,0.0,-0.0041,-0.0094,-0.0106,-0.0128,-0.0143,-0.0139,-0.0135,-0.007,-0.007,-0.0069,-0.0069,0,0.015,0.0183,0.0252,0.037,0.0452,0.0548,0.0646,0.0714,0.0768,0.0822,0.0888,0.0879,0.0674,0.0509,0.023,0.01,-0.0065,-0.0092,-0.0126,-0.0051,-0.0034,-0.0047,-0.0046,-0.0065,-0.0066,-0.0066,-0.0066,-0.0066,0.0169,0.0216,0.0312,0.0418,0.0518,0.065,0.0755,0.0867,0.0988,0.11,0.1057,0.1063,0.0823,0.0507,0.025,-0.0028,-0.002,-0.0112,-0.0111,-0.0112,-0.0087,-0.0071,-0.0105,-0.0106,-0.0107,-0.0107,-0.0107,0,0.0208,0.0261,0.0363,0.05,0.0631,0.0673,0.0851,0.0982,0.1162,0.1224,0.1293,0.1101,0.0889,0.0589,0.0196,-0.0042,-0.006,-0.0128,-0.0094,-0.0094,-0.0096,-0.007,-0.0085,-0.0086,-0.0087,-0.0087,0,0,0.0236,0.0328,0.0381,0.0582,0.0685,0.0882,0.1003,0.1194,0.1302,0.1423,0.1417,0.1368,0.0995,0.0714,0.0384,0.0147,0.008,0.0101,0.0115,0.0196,0.0197,-0.0047,-0.0003,0,0,0,0,0]}],[{"header":{"parameterUnit":"m.s-1","parameterCategory":2,"la1":30.2991,"la2":30.254,"lo1":-89.0895,"lo2":-89.0444,"dy":0.0017,"dx":0.0017,"nx":28,"ny":28,"refTime":"2025-03-16T03:00:00:Z","depth":"4","parameterNumber":2,"parameterNumberName":"U-component_of_CURRENTS"},"data":[0,0,0,0,0,0,0,0,0,0,0,0,0,0,0,0,0,0,0,0,0,0,0,0,0,0,0,0,0,0,0,0,0,0,0,0,0,0,0,0,0,0,0,0,0,0,0,0,0,0,0,0,0,0,0,0,0,0,0.0953,0.0954,0,0.0986,0.0986,0.0986,0.1055,0.1057,0.1059,0.106,0.1175,0.1176,0.1177,0,0,0,0,0,0,0,0,0,0,0,0,0,0.0864,0.0866,0.0953,0.0954,0.0955,0.0986,0.0986,0.0986,0.1055,0.1057,0.1059,0.1061,0.1174,0.1176,0.1177,0,0,0,0,0,0,0,0,0,0,0,0,0,0.0897,0.0866,0.0953,0.0996,0.1,0.0986,0.0986,0.0986,0.1054,0.1057,0.106,0.1062,0.1174,0.1176,0.1178,0.1137,0,0,0.1184,0.1185,0,0,0,0,0,0,0,0,0.0895,0.09,0.0989,0.0993,0.0998,0.1023,0.0997,0.1042,0.1054,0.1029,0.106,0.1063,0.1132,0.1138,0.1131,0.1143,0.1148,0.1184,0.1185,0.1186,0.1187,0,0,0,0,0,0,0,0.0893,0.0898,0.0962,0.099,0.0995,0.0985,0.0993,0.1005,0.1064,0.1032,0.1038,0.1047,0.1135,0.1129,0.1134,0.1149,0.1184,0.1186,0.1187,0.1188,0.1303,0.1304,0,0,0,0,0,0,0.0899,0.0896,0.0961,0.0964,0.0957,0.0985,0.0993,0.1009,0.1062,0.1073,0.1045,0.1051,0.1124,0.1132,0.1139,0.1262,0.1186,0.1188,0.119,0.1301,0.1303,0.1305,0,0,0,0,0,0,0.0897,0.0905,0.096,0.0934,0.0941,0.0985,0.1001,0.1008,0.1034,0.1072,0.1085,0.1068,0.1126,0.1136,0.1209,0.1261,0.1189,0.1191,0.1299,0.1301,0.1304,0.1402,0,0,0,0,0,0,0.0894,0.0904,0.0933,0.0934,0.0943,0.0986,0.0999,0.1007,0.1036,0.1044,0.1095,0.1106,0.1129,0.1206,0.1211,0.1263,0.1193,0.1296,0.13,0.1303,0.1397,0.1408,0.1418,0,0,0,0,0,0.0891,0.0915,0.0935,0.0944,0.0977,0.0987,0.0991,0.1026,0.1035,0.1056,0.1107,0.1107,0.123,0.1209,0.1214,0.1269,0.1295,0.1299,0.1303,0.1392,0.1406,0.1417,0,0,0,0,0,0,0.0885,0.0925,0.0946,0.0982,0.1002,0.1002,0.1031,0.1032,0.1079,0.1112,0.1127,0.1143,0.1222,0.1224,0.1199,0.131,0.1262,0.1267,0.1328,0.1341,0.1351,0.1292,0.1195,0,0,0,0,0,0.0898,0.0927,0.0957,0.0981,0.1006,0.1016,0.1029,0.1056,0.1087,0.111,0.1144,0.119,0.1231,0.1273,0.1302,0.136,0.1348,0.1398,0.1408,0.1417,0.1373,0.1432,0.1444,0.1318,0.1318,0.1318,0,0,0.0899,0.0922,0.0942,0.0982,0.1004,0.1039,0.1032,0.1074,0.1105,0.1116,0.1187,0.1222,0.125,0.133,0.1365,0.135,0.1453,0.1422,0.143,0.1379,0.1438,0.145,0.1461,0.1321,0.132,0.132,0,0,0.0898,0.0946,0.0976,0.1001,0.1055,0.1073,0.1089,0.1124,0.1159,0.1225,0.1243,0.1302,0.1371,0.14,0.1421,0.1495,0.1496,0.1525,0.1548,0.1609,0.162,0.1628,0.1655,0.1665,0.1545,0.1545,0.1545,0,0.0922,0.0942,0.0982,0.1014,0.1055,0.109,0.1137,0.116,0.1213,0.1241,0.1275,0.1362,0.1394,0.1457,0.1494,0.1517,0.1543,0.1506,0.1623,0.1631,0.1638,0.1663,0.1673,0.155,0.155,0.1549,0.1549,0,0.0929,0.0965,0.0984,0.1049,0.11,0.1142,0.1203,0.1244,0.1299,0.1323,0.1409,0.1458,0.1514,0.1541,0.1543,0.1612,0.1612,0.1623,0.1591,0.1657,0.1679,0.1688,0.1558,0.1556,0.1554,0.1553,0,0,0.0953,0.0991,0.1003,0.1036,0.1134,0.1168,0.1242,0.1307,0.1347,0.1419,0.1478,0.1543,0.1575,0.1594,0.1621,0.1652,0.1743,0.1665,0.1666,0.1687,0.1872,0.1742,0.1739,0.1803,0.1805,0.1806,0.1876,0,0.0964,0.1004,0.1044,0.1111,0.1153,0.1225,0.1281,0.1351,0.1425,0.1489,0.1537,0.1609,0.1601,0.1658,0.1696,0.172,0.1766,0.172,0.1803,0.1803,0.1678,0.1744,0.1811,0.1882,0.1884,0.1885,0.1886,0,0.098,0.1,0.1066,0.1137,0.1173,0.1229,0.135,0.1415,0.1502,0.1557,0.1635,0.1677,0.1731,0.1732,0.1806,0.1792,0.1832,0.1838,0.1844,0.1674,0.1687,0.1795,0.1901,0.19,0.1899,0.1898,0.1897,0,0.0967,0.1027,0.1079,0.1108,0.1197,0.1255,0.1334,0.144,0.1506,0.1616,0.1667,0.1747,0.181,0.1858,0.1879,0.1876,0.1942,0.1959,0.187,0.1862,0.1914,0.1903,0.2014,0.2014,0.2014,0.2014,0.2014,0,0.0963,0.0997,0.1069,0.1093,0.1171,0.127,0.1371,0.1445,0.1565,0.1626,0.1719,0.1757,0.1849,0.1896,0.1913,0.19,0.1996,0.1849,0.1868,0.1958,0.1951,0.1922,0.191,0.2017,0.2016,0.2016,0.2015,0,0.0931,0.0971,0.1023,0.1118,0.1165,0.1238,0.1388,0.1432,0.1562,0.1652,0.1691,0.1798,0.1847,0.1902,0.1973,0.1933,0.1936,0.1917,0.1985,0.2011,0.1808,0.1801,0.1824,0.182,0.1816,0.1813,0.1811,0,0.0909,0.0932,0.104,0.1079,0.1128,0.1234,0.1289,0.1427,0.1477,0.1636,0.1656,0.176,0.1804,0.1793,0.1868,0.1899,0.1883,0.1877,0.1833,0.177,0.1788,0.1786,0.1784,0.1806,0.1805,0.1804,0.1803,0,0.0868,0.0919,0.0956,0.103,0.1094,0.1152,0.1249,0.1269,0.141,0.153,0.1573,0.1612,0.1666,0.171,0.175,0.1766,0.1867,0.1841,0.1848,0.1806,0.1749,0.1769,0.1771,0.1791,0.1793,0.1794,0.1794,0,0.084,0.0848,0.0902,0.096,0.103,0.1047,0.1105,0.1152,0.1224,0.1399,0.1404,0.1515,0.1633,0.1642,0.167,0.168,0.1664,0.1611,0.163,0.1644,0.1551,0.145,0.1403,0,0,0,0,0,0.0799,0.0787,0.0829,0.0863,0.0927,0.0965,0.1061,0.1111,0.1227,0.1221,0.132,0.1361,0.1419,0.1483,0.1461,0.1594,0.1665,0.1561,0.161,0.1724,0.1738,0.1646,0,0,0,0,0,0,0.0758,0.0783,0.0784,0.077,0.078,0.0819,0.0865,0.0946,0.0956,0.11,0.114,0.1271,0.1349,0.1415,0.1431,0.1453,0.1455,0.1652,0.1648,0.1717,0.1729,0.174,0.165,0,0,0,0,0]},{"header":{"parameterUnit":"m.s-1","parameterCategory":2,"la1":30.2991,"la2":30.254,"lo1":-89.0895,"lo2":-89.0444,"dy":0.0017,"dx":0.0017,"nx":28,"ny":28,"refTime":"2025-03-16T03:00:00:Z","depth":"4","parameterNumber":3,"parameterNumberName":"V-component_of_CURRENTS"},"data":[0,0,0,0,0,0,0,0,0,0,0,0,0,0,0,0,0,0,0,0,0,0,0,0,0,0,0,0,0,0,0,0,0,0,0,0,0,0,0,0,0,0,0,0,0,0,0,0,0,0,0,0,0,0,0,0,0,0,0.0335,0.0335,0,0.0322,0.0322,0.0321,0.0312,0.0312,0.0312,0.0312,0.0297,0.0297,0.0297,0,0,0,0,0,0,0,0,0,0,0,0,0,0.0316,0.0317,0.0335,0.0335,0.0335,0.0322,0.0322,0.0321,0.0312,0.0312,0.0312,0.0312,0.0298,0.0297,0.0297,0,0,0,0,0,0,0,0,0,0,0,0,0,0.0316,0.0317,0.0335,0.0329,0.0328,0.0322,0.0322,0.0321,0.0312,0.0312,0.0312,0.0312,0.0298,0.0297,0.0297,0.0296,0,0,0.0295,0.0295,0,0,0,0,0,0,0,0,0.0316,0.0317,0.033,0.0329,0.0329,0.0319,0.031,0.0313,0.0312,0.0318,0.0312,0.0312,0.0305,0.0304,0.0301,0.0295,0.0294,0.0295,0.0295,0.0295,0.0295,0,0,0,0,0,0,0,0.0316,0.0317,0.033,0.033,0.0329,0.0314,0.0314,0.031,0.0312,0.0317,0.0317,0.0315,0.0304,0.0302,0.0301,0.0294,0.0295,0.0295,0.0295,0.0294,0.0269,0.0268,0,0,0,0,0,0,0.032,0.0317,0.033,0.0329,0.0322,0.0315,0.0315,0.0322,0.0312,0.031,0.0316,0.0315,0.0302,0.0301,0.03,0.0296,0.0295,0.0294,0.0294,0.0269,0.0269,0.0268,0,0,0,0,0,0,0.032,0.0322,0.0331,0.0322,0.0323,0.0315,0.0323,0.0322,0.0318,0.031,0.0309,0.0313,0.0302,0.0301,0.0292,0.0295,0.0294,0.0294,0.027,0.0269,0.0269,0.0289,0,0,0,0,0,0,0.032,0.0322,0.032,0.0323,0.0323,0.0327,0.0323,0.0321,0.0317,0.0317,0.0308,0.0307,0.0302,0.0293,0.0292,0.0295,0.0293,0.027,0.0269,0.0269,0.0289,0.0289,0.029,0,0,0,0,0,0.0319,0.0319,0.032,0.0321,0.0324,0.0327,0.0325,0.0319,0.0317,0.0316,0.0308,0.0307,0.0288,0.0293,0.0291,0.0294,0.027,0.027,0.0269,0.0289,0.0289,0.029,0,0,0,0,0,0,0.0305,0.0319,0.0319,0.0322,0.0324,0.0325,0.0322,0.0319,0.0312,0.0312,0.0304,0.0302,0.0295,0.0289,0.0294,0.0282,0.0278,0.0277,0.0294,0.0294,0.0295,0.0319,0.0293,0,0,0,0,0,0.0303,0.0311,0.0317,0.0319,0.0323,0.0323,0.032,0.032,0.0317,0.0314,0.0307,0.0298,0.029,0.0288,0.0279,0.0275,0.0265,0.0274,0.0274,0.0275,0.0292,0.0264,0.0264,0.0265,0.0265,0.0265,0,0,0.0303,0.0306,0.0314,0.0317,0.0321,0.0332,0.0321,0.0324,0.0331,0.0314,0.0316,0.03,0.0288,0.0283,0.0279,0.0279,0.0267,0.0274,0.0274,0.0292,0.0263,0.0263,0.0263,0.0265,0.0265,0.0265,0,0,0.0311,0.0309,0.0323,0.0324,0.0327,0.0332,0.0334,0.0336,0.0333,0.0331,0.0319,0.0306,0.0295,0.0288,0.0284,0.0281,0.0268,0.0272,0.0299,0.0271,0.0271,0.0271,0.0252,0.025,0.0275,0.0275,0.0275,0,0.0302,0.033,0.0324,0.0333,0.0343,0.0336,0.0357,0.0351,0.0347,0.035,0.0335,0.0318,0.0302,0.0303,0.0299,0.0284,0.0267,0.03,0.0273,0.0272,0.0272,0.0253,0.025,0.0276,0.0275,0.0275,0.0275,0,0.0327,0.0345,0.0352,0.0371,0.0373,0.039,0.0389,0.0387,0.0383,0.038,0.0373,0.0345,0.0341,0.0324,0.0313,0.0304,0.0292,0.0274,0.0276,0.0274,0.0252,0.025,0.0277,0.0277,0.0276,0.0276,0,0,0.0327,0.0366,0.0371,0.0394,0.04,0.0412,0.0418,0.0433,0.0448,0.0423,0.0437,0.0406,0.0392,0.0385,0.036,0.0335,0.0308,0.0308,0.0306,0.0297,0.0251,0.0238,0.0233,0.0281,0.0281,0.0281,0.0236,0,0.0354,0.0401,0.0405,0.045,0.0479,0.0471,0.0483,0.0484,0.0481,0.0486,0.0453,0.0452,0.0415,0.041,0.0379,0.033,0.0302,0.0322,0.0248,0.0247,0.0241,0.023,0.028,0.0233,0.0233,0.0232,0.0232,0,0.038,0.0414,0.047,0.0512,0.0523,0.0543,0.0571,0.0575,0.0569,0.0564,0.0552,0.0522,0.0493,0.0452,0.0375,0.0388,0.0328,0.0281,0.0277,0.0262,0.0229,0.0236,0.0227,0.0227,0.0228,0.0228,0.0228,0,0.0407,0.0457,0.0513,0.0526,0.0565,0.0586,0.0604,0.0607,0.0626,0.0616,0.0625,0.058,0.0563,0.0482,0.0386,0.0377,0.0293,0.0267,0.02,0.0198,0.0216,0.0216,0.0209,0.0209,0.0209,0.0209,0.0209,0,0.0437,0.048,0.0537,0.0569,0.0628,0.063,0.0684,0.0685,0.0702,0.0731,0.0673,0.0677,0.0567,0.0503,0.0407,0.0301,0.0307,0.0211,0.0186,0.0223,0.0225,0.0213,0.0214,0.0208,0.0208,0.0208,0.0209,0,0.0455,0.0495,0.0561,0.0624,0.0646,0.0686,0.0747,0.0784,0.0783,0.0816,0.0814,0.0757,0.0665,0.0549,0.0418,0.0337,0.0229,0.0187,0.0248,0.0226,0.0148,0.015,0.0112,0.0111,0.0111,0.011,0.011,0,0.048,0.0515,0.06,0.0644,0.068,0.0744,0.0792,0.0825,0.0865,0.0863,0.0882,0.0805,0.0747,0.0563,0.043,0.0249,0.0215,0.0161,0.0144,0.0159,0.0138,0.0142,0.0145,0.0108,0.0108,0.0108,0.0108,0,0.0515,0.0539,0.0591,0.0681,0.0751,0.0825,0.0895,0.0932,0.096,0.0966,0.0935,0.0829,0.0725,0.0568,0.0427,0.0294,0.0197,0.0153,0.0153,0.0136,0.0154,0.0134,0.0139,0.0105,0.0106,0.0106,0.0106,0,0.0532,0.0571,0.0634,0.0711,0.0798,0.0877,0.0916,0.0963,0.1001,0.0996,0.0986,0.0858,0.0792,0.0592,0.0464,0.033,0.0287,0.0237,0.0232,0.0233,0.0272,0.0312,0.0298,0,0,0,0,0,0.0539,0.0583,0.0659,0.0751,0.0835,0.0891,0.097,0.1002,0.1037,0.1023,0.1005,0.0901,0.0699,0.0616,0.048,0.0439,0.0261,0.0274,0.0199,0.0092,0.0095,0.0118,0,0,0,0,0,0,0.055,0.0609,0.0656,0.0768,0.0834,0.0938,0.0994,0.1019,0.1011,0.1011,0.091,0.0861,0.067,0.0778,0.0475,0.0435,0.0367,0.0185,0.0181,0.009,0.0093,0.0095,0.012,0,0,0,0,0]}]]